Wetbulb
59.05 58.21 57.86 57.60 57.52 56.97 56.51 56.62 56.90 58.84 59.80 60.14 60.51 60.39 60.56 60.77 59.47 60.55 56.41 64.79 66.44 69.77 70.18 68.66 67.68 67.98 69.21 66.93 67.12 66.62 59.59 56.03 56.17 56.68 59.05 63.46 61.96 63.65 65.84 64.27 64.27 66.10 66.60 69.12 71.24
58.32 58.38 57.66 57.05 56.84 57.02 56.35 56.11 57.34 57.57 59.80 59.95 59.96 59.99 60.21 60.40 60.34 58.31 67.42 70.27 69.01 70.75 67.81 65.29 63.97 65.19 65.35 64.35 65.80 63.49 58.51 58.26 61.65 61.50 60.47 62.21 62.88 64.04 63.33 62.99 63.80 65.42 68.57 70.13 70.69
58.10 58.27 57.18 56.76 56.47 56.25 56.20 56.94 56.35 57.19 59.28 59.73 59.74 59.68 60.13 60.47 59.87 60.48 68.99 69.91 69.74 70.51 67.42 65.61 65.23 65.45 62.93 64.75 63.51 62.86 55.67 61.22 62.15 63.08 63.14 62.73 62.54 64.26 63.15 61.18 63.98 64.70 67.68 68.89 69.30
58.10 57.31 56.98 56.91 56.37 56.21 56.14 56.86 56.71 56.75 57.35 59.12 59.17 59.48 60.07 62.51 55.23 62.09 69.63 70.15 70.33 67.55 65.93 63.95 62.63 62.13 61.04 60.81 63.88 60.50 61.74 62.56 63.15 64.00 63.48 62.48 63.81 63.19 63.73 63.93 67.73 66.70 69.67 69.31 68.40
58.01 57.46 56.66 56.84 56.53 56.05 56.26 56.18 56.09 56.01 56.43 58.10 58.92 59.57 62.39 58.19 61.96 65.88 70.66 69.99 66.12 66.24 63.74 62.77 62.12 62.37 58.15 61.50 62.98 61.51 61.85 62.74 63.39 63.48 63.84 64.39 62.47 62.84 63.53 65.99 68.82 67.89 69.05 68.97 68.62
58.08 57.06 56.51 56.62 56.57 56.19 56.00 55.79 55.53 55.74 55.96 57.66 59.17 58.84 60.79 58.56 67.66 63.70 64.55 66.21 65.48 64.22 63.46 63.27 62.24 63.52 62.26 61.24 61.25 62.11 61.39 61.68 62.47 62.80 63.47 62.45 62.61 63.49 63.93 66.48 67.88 67.71 68.18 68.99 68.54
58.04 57.45 56.50 56.03 55.94 55.62 55.87 56.14 55.73 55.73 56.26 57.58 59.90 62.88 61.82 61.03 67.72 65.01 65.11 64.59 65.22 63.35 62.18 63.44 63.79 63.15 62.66 60.04 62.08 61.39 59.09 60.71 61.89 62.44 62.52 64.27 61.21 61.49 65.33 66.97 66.93 67.27 68.05 68.30 68.50
57.80 57.29 56.87 56.20 55.87 56.26 56.03 56.08 56.17 56.59 57.35 58.57 60.51 63.16 60.71 64.72 68.41 66.96 66.20 64.21 64.42 64.31 63.54 63.94 64.22 62.97 61.75 62.90 61.56 59.34 60.01 56.85 60.74 60.99 62.80 63.17 56.55 63.02 66.00 66.41 65.70 66.42 67.23 67.46 68.05
57.47 57.08 56.62 55.99 56.20 56.09 55.69 55.34 56.99 58.60 58.65 60.08 62.92 63.40 59.28 63.92 63.57 65.59 65.72 62.20 62.75 63.44 62.84 64.27 63.52 61.87 61.13 58.56 57.08 57.70 53.59 55.34 56.80 61.39 60.66 62.46 57.85 64.73 66.64 65.76 65.27 65.80 66.69 67.01 67.21
57.17 56.74 56.51 55.69 55.76 55.73 54.90 54.59 57.70 58.30 61.06 64.04 63.49 59.71 61.51 59.56 63.22 64.24 65.12 63.64 61.83 61.66 60.07 61.06 61.21 59.25 58.99 56.74 49.47 51.71 52.02 53.34 53.80 58.49 59.99 58.24 59.18 61.65 66.73 66.02 65.29 65.52 66.06 66.80 66.89
56.95 56.43 55.95 55.61 55.85 55.18 57.41 62.51 60.32 60.55 62.03 56.85 57.90 58.95 59.88 62.16 64.04 62.81 64.02 61.99 62.09 59.93 56.47 59.82 57.06 54.62 55.32 56.97 55.34 54.17 53.20 52.55 54.86 58.04 57.19 57.00 57.47 59.69 62.75 66.19 65.36 65.23 65.73 66.26 66.82
56.10 55.93 55.28 55.47 55.53 54.94 58.03 58.78 59.90 60.60 57.03 58.39 59.28 59.88 60.46 62.35 58.94 61.20 63.74 59.19 59.21 56.41 58.44 57.23 54.32 57.00 57.38 56.39 54.55 53.85 52.73 52.32 54.94 56.93 57.98 56.95 56.48 59.71 61.27 62.38 64.22 65.24 65.78 66.20 66.59
55.54 55.14 55.08 55.16 55.08 57.15 59.11 58.93 62.67 61.99 57.01 57.79 57.92 58.15 59.39 60.65 57.80 59.44 61.41 60.28 58.59 56.92 57.02 53.84 55.83 57.17 56.55 55.62 54.14 53.67 52.68 52.30 52.22 54.77 58.09 56.58 54.89 58.26 59.02 63.82 64.29 65.35 66.37 67.03 66.54
55.26 54.75 54.75 54.41 55.77 61.27 57.79 60.64 61.66 62.33 54.35 54.20 55.28 56.83 59.13 59.67 56.75 61.49 62.57 60.18 58.58 56.15 56.18 56.65 57.75 56.21 55.28 54.51 54.96 51.64 55.17 54.03 52.96 52.38 48.95 57.23 49.41 56.01 58.55 60.31 60.33 63.93 65.14 65.98 66.95
54.79 54.94 54.73 53.53 62.40 58.35 62.20 63.84 62.37 61.96 47.20 55.86 55.77 61.58 58.65 56.95 57.60 58.36 62.13 59.81 55.98 55.61 56.24 54.57 55.63 54.74 54.12 54.29 56.26 53.69 56.13 54.23 53.99 52.53 53.09 52.07 49.51 48.29 52.58 56.73 58.06 61.50 62.36 64.45 66.29
54.27 54.43 53.88 59.57 63.01 62.99 62.95 62.09 62.84 52.36 46.03 54.51 57.34 54.51 54.53 55.29 55.74 57.91 58.57 60.35 59.63 56.23 56.39 55.51 58.39 56.77 55.99 56.75 55.79 56.37 54.66 54.60 54.51 51.87 44.78 51.36 49.78 48.73 54.87 56.34 57.48 58.95 60.73 63.02 64.72
53.98 53.35 54.41 63.57 60.89 63.14 62.47 61.23 52.54 48.22 55.70 53.41 55.34 56.98 56.34 53.65 53.51 54.32 54.96 54.84 53.27 51.09 51.35 53.66 53.78 56.58 57.52 54.04 55.78 54.87 52.49 45.05 45.69 45.69 46.10 52.79 49.79 52.54 56.27 57.21 57.49 58.05 59.57 63.03 65.41
53.44 52.29 58.06 63.94 65.33 62.88 62.07 57.03 48.93 51.33 52.43 57.78 56.38 56.51 54.73 55.93 55.17 53.41 52.25 51.43 54.82 54.37 51.77 49.38 48.92 54.40 56.09 54.85 53.24 53.51 52.47 48.32 42.08 40.31 45.32 51.10 47.02 50.71 57.19 59.01 59.72 60.42 60.87 62.21 63.42
51.64 63.59 64.04 63.45 63.58 63.67 59.34 51.73 51.71 51.64 56.06 55.33 55.83 53.79 54.15 56.01 55.28 55.74 54.95 53.90 54.39 54.99 50.69 50.03 50.96 55.58 56.97 57.73 56.06 53.16 49.56 54.71 51.22 50.89 46.92 49.65 51.68 53.68 57.56 57.23 58.58 59.48 60.61 61.03 62.32
62.33 63.74 59.84 63.74 63.80 61.02 56.94 50.87 53.74 55.71 56.59 56.80 52.98 54.59 52.72 53.51 54.28 54.26 54.16 56.99 56.58 58.44 59.71 55.49 50.03 54.26 55.62 58.88 57.09 55.34 57.26 50.64 50.78 43.38 41.98 47.52 48.23 49.64 53.08 55.30 57.47 57.98 58.82 60.28 61.61
63.31 58.68 61.99 62.91 62.90 58.00 53.54 54.68 54.69 56.17 56.65 55.02 54.42 53.24 53.81 53.75 54.94 53.83 53.33 56.67 58.93 58.77 60.08 57.51 54.65 53.15 55.28 53.86 52.08 52.96 52.90 50.23 51.56 50.85 43.97 42.88 42.63 55.41 54.97 56.88 57.12 58.24 59.68 60.67 60.99
64.48 57.37 61.39 62.69 55.56 56.85 54.73 55.59 51.12 54.96 56.58 55.92 57.36 56.25 55.01 55.96 55.18 55.43 54.27 56.64 60.24 59.37 55.04 58.87 57.03 51.45 51.93 55.52 57.93 56.32 54.29 54.87 48.75 47.34 47.78 49.35 47.81 56.14 57.21 57.82 58.14 57.84 59.80 61.33 61.92
62.90 59.60 61.09 61.39 52.88 54.57 56.38 54.98 55.25 54.69 55.15 54.58 54.68 56.64 58.67 56.48 54.40 56.28 56.73 60.12 59.92 59.71 58.20 60.08 55.52 50.14 50.42 51.92 53.44 50.58 53.17 54.81 54.96 54.21 49.44 43.72 47.90 57.29 57.15 56.85 57.55 56.92 57.95 59.21 59.55
64.29 54.57 56.13 57.59 59.04 57.54 55.18 54.40 53.91 57.07 55.56 56.34 55.65 57.87 57.94 56.48 58.89 56.55 57.01 59.64 60.28 59.37 57.43 60.75 57.65 53.86 48.73 50.98 54.41 52.22 53.09 54.07 52.77 49.49 49.05 49.49 47.12 53.39 54.21 54.58 55.83 56.50 57.14 57.39 57.43
66.49 63.04 60.97 51.96 54.35 56.69 57.51 56.36 55.43 55.10 58.45 58.79 56.58 56.22 56.90 55.47 55.34 55.51 57.65 58.91 59.72 59.28 58.51 58.07 54.01 53.99 54.23 54.32 53.63 52.99 52.18 52.11 51.54 51.78 49.32 50.52 51.06 52.74 53.51 53.28 54.56 55.88 56.36 56.35 56.12
64.76 64.59 60.75 61.94 59.31 57.56 53.37 56.62 56.43 56.91 57.77 56.42 56.38 56.35 58.29 56.48 56.99 55.95 57.15 58.04 57.55 57.66 59.24 61.16 54.41 55.30 53.28 54.19 54.07 51.43 52.45 52.23 52.43 52.31 52.30 51.24 51.36 54.57 54.87 54.29 53.31 53.42 53.68 53.79 54.39
66.75 69.14 66.73 57.07 60.14 57.95 58.88 58.58 57.52 58.71 59.09 59.02 59.34 59.20 57.89 58.70 60.56 61.97 62.35 62.04 61.43 59.17 58.65 58.88 55.85 53.02 48.82 53.48 53.50 48.84 51.40 52.53 52.80 53.34 52.25 49.22 52.83 54.35 52.41 52.06 52.31 52.75 53.28 53.14 53.79
MSLP
1017.43 1017.21 1017.01 1016.81 1016.64 1016.55 1016.46 1016.25 1016.10 1015.82 1015.52 1015.33 1015.07 1014.86 1014.68 1014.44 1014.04 1013.50 1011.13 1009.88 1009.98 1010.53 1010.77 1009.22 1008.80 1008.01 1007.25 1005.72 1005.49 1004.77 1003.91 1003.78 1004.26 1005.02 1005.93 1007.04 1006.69 1008.07 1008.48 1008.33 1009.16 1009.81 1010.27 1011.08 1012.82
1017.55 1017.27 1017.09 1016.90 1016.70 1016.49 1016.39 1016.21 1015.98 1015.81 1015.52 1015.29 1015.06 1014.88 1014.68 1014.42 1012.95 1010.78 1009.94 1009.97 1010.21 1010.46 1009.98 1008.59 1007.55 1007.14 1005.84 1005.42 1005.08 1004.20 1005.01 1004.63 1004.42 1005.15 1005.38 1006.15 1006.53 1007.16 1007.85 1008.08 1008.90 1010.13 1011.30 1011.94 1012.66
1017.64 1017.37 1017.15 1016.95 1016.76 1016.59 1016.43 1016.14 1015.97 1015.72 1015.47 1015.23 1015.05 1014.89 1014.62 1014.17 1011.75 1008.66 1009.39 1009.81 1010.12 1010.19 1008.75 1007.86 1007.12 1006.61 1005.22 1005.06 1004.87 1004.61 1007.01 1005.02 1005.38 1005.90 1006.09 1005.46 1005.93 1006.56 1007.07 1007.40 1007.79 1008.46 1010.41 1011.86 1012.53
1017.66 1017.39 1017.14 1016.85 1016.72 1016.53 1016.33 1016.06 1015.89 1015.67 1015.48 1015.20 1015.00 1014.83 1014.53 1013.32 1009.43 1008.61 1009.59 1009.78 1010.15 1009.65 1008.53 1007.68 1007.03 1005.91 1005.37 1005.38 1005.05 1004.92 1005.45 1005.35 1005.52 1006.03 1006.10 1005.79 1005.22 1005.72 1006.43 1006.58 1007.77 1008.39 1009.49 1011.17 1011.82
1017.67 1017.40 1017.12 1016.82 1016.61 1016.43 1016.21 1015.99 1015.85 1015.67 1015.44 1015.14 1014.91 1014.73 1014.29 1011.41 1008.13 1009.33 1009.73 1010.05 1010.07 1009.61 1008.01 1007.09 1006.26 1005.39 1007.14 1004.61 1004.75 1004.61 1005.10 1005.59 1005.79 1006.09 1005.91 1005.74 1005.56 1005.37 1005.60 1006.49 1007.91 1008.37 1009.31 1010.42 1011.18
1017.56 1017.34 1017.05 1016.76 1016.49 1016.24 1016.01 1015.78 1015.63 1015.50 1015.32 1015.07 1014.81 1014.72 1013.13 1009.06 1007.59 1008.88 1008.70 1009.46 1008.67 1008.23 1007.31 1006.76 1005.87 1005.75 1004.80 1004.76 1004.73 1004.77 1005.24 1005.30 1005.25 1005.51 1005.73 1005.86 1005.19 1005.35 1005.73 1006.12 1007.59 1008.27 1008.84 1009.73 1010.55
1017.42 1017.21 1017.00 1016.71 1016.44 1016.15 1015.81 1015.54 1015.32 1015.19 1015.05 1014.91 1014.69 1013.76 1011.08 1007.89 1007.31 1007.97 1008.55 1008.42 1007.98 1007.63 1006.77 1006.44 1006.33 1005.97 1005.29 1004.83 1005.38 1005.16 1005.22 1004.45 1004.60 1005.24 1005.45 1005.76 1004.93 1004.38 1005.33 1005.82 1007.22 1007.94 1008.46 1009.12 1009.99
1017.40 1017.09 1016.84 1016.58 1016.28 1015.90 1015.59 1015.27 1014.95 1014.77 1014.67 1014.60 1014.51 1013.02 1008.86 1007.59 1007.35 1007.57 1007.92 1007.89 1007.81 1007.56 1007.27 1006.99 1006.71 1006.16 1005.54 1005.53 1005.18 1004.60 1004.67 1004.48 1003.54 1004.72 1005.26 1006.04 1003.95 1003.45 1004.54 1005.88 1007.00 1007.46 1008.11 1008.81 1009.55
1017.38 1017.04 1016.72 1016.41 1016.04 1015.67 1015.37 1014.99 1014.52 1014.23 1014.28 1014.23 1013.68 1011.48 1007.58 1008.35 1007.47 1007.16 1007.45 1007.33 1007.58 1007.51 1007.51 1007.49 1006.77 1005.69 1005.31 1004.89 1004.35 1005.04 1003.51 1004.21 1003.45 1004.21 1004.73 1005.44 1004.29 1004.88 1005.42 1006.00 1006.63 1006.91 1007.64 1008.43 1009.29
1017.30 1016.95 1016.60 1016.26 1015.86 1015.46 1015.10 1014.83 1014.38 1014.14 1013.86 1012.88 1011.35 1009.95 1007.47 1006.47 1006.49 1007.12 1007.22 1007.17 1007.31 1007.25 1007.20 1007.06 1006.14 1005.19 1004.33 1003.92 1003.90 1004.04 1003.20 1003.02 1002.94 1005.11 1004.62 1004.31 1004.16 1004.02 1004.88 1005.73 1006.24 1006.59 1006.74 1007.63 1008.56
1017.27 1016.84 1016.45 1016.08 1015.70 1015.37 1014.25 1013.83 1013.48 1012.12 1010.88 1008.70 1007.79 1006.87 1005.20 1005.72 1006.65 1006.85 1007.01 1007.15 1006.88 1006.96 1006.36 1005.89 1005.28 1004.47 1005.40 1005.41 1004.35 1003.99 1003.71 1003.22 1002.80 1003.04 1003.84 1003.89 1003.60 1003.38 1003.80 1005.06 1005.80 1006.25 1006.50 1006.95 1007.62
1017.16 1016.74 1016.32 1015.90 1015.54 1015.26 1014.75 1010.97 1009.28 1008.80 1007.75 1007.32 1006.77 1006.06 1006.00 1005.56 1005.77 1005.86 1006.81 1006.68 1006.34 1006.07 1005.81 1005.35 1004.81 1004.39 1004.47 1004.57 1004.49 1004.27 1003.65 1003.20 1003.74 1002.78 1003.78 1003.60 1003.23 1003.01 1003.00 1003.25 1004.20 1005.30 1006.21 1006.72 1007.28
1017.05 1016.59 1016.11 1015.68 1015.28 1014.70 1011.80 1009.58 1008.85 1008.66 1007.18 1005.90 1005.97 1005.83 1005.65 1005.79 1005.11 1004.98 1006.17 1005.91 1005.53 1005.65 1005.58 1006.70 1005.73 1006.19 1005.70 1004.63 1004.07 1003.77 1003.97 1003.63 1003.40 1003.16 1003.34 1003.35 1005.54 1002.93 1002.91 1003.55 1004.26 1005.09 1005.82 1006.18 1006.96
1016.97 1016.48 1015.93 1015.42 1015.28 1011.01 1010.02 1009.13 1008.87 1008.86 1006.70 1005.39 1005.28 1005.24 1004.96 1005.23 1004.91 1004.38 1004.89 1005.23 1004.88 1004.57 1004.83 1005.96 1005.28 1004.42 1004.77 1004.46 1004.17 1003.52 1003.45 1003.67 1003.56 1003.33 1003.44 1004.03 1003.75 1004.18 1003.37 1003.55 1005.65 1003.14 1005.76 1006.18 1006.47
1016.84 1016.33 1015.83 1015.72 1013.46 1010.14 1009.38 1009.02 1008.88 1009.00 1005.33 1004.50 1004.23 1004.50 1004.62 1004.79 1004.58 1004.23 1004.25 1004.65 1004.38 1004.25 1004.86 1004.11 1004.41 1004.37 1004.60 1004.70 1004.31 1003.45 1003.58 1003.88 1003.98 1004.03 1005.04 1005.56 1005.90 1006.43 1007.43 1005.34 1005.09 1004.84 1005.39 1005.26 1006.12
1016.59 1016.12 1015.68 1014.17 1012.75 1009.80 1009.39 1009.13 1009.11 1007.53 1004.34 1003.90 1003.87 1004.07 1004.16 1004.15 1003.96 1003.82 1003.91 1004.50 1004.32 1004.22 1004.04 1003.63 1003.86 1004.03 1004.30 1004.26 1004.06 1004.11 1003.84 1004.00 1003.91 1005.39 1007.30 1007.00 1007.33 1006.03 1004.72 1004.92 1004.77 1005.01 1005.23 1005.96 1006.14
1016.20 1015.82 1015.53 1012.70 1009.80 1009.62 1009.32 1008.77 1007.44 1005.29 1004.45 1003.74 1003.27 1003.55 1003.13 1003.07 1003.56 1003.55 1003.26 1003.96 1004.07 1004.01 1003.55 1003.51 1003.39 1003.12 1003.14 1003.31 1003.39 1003.57 1005.03 1006.32 1005.64 1005.57 1005.07 1006.13 1006.86 1006.26 1005.50 1005.54 1005.39 1005.78 1006.03 1006.56 1007.15
1015.66 1015.34 1013.46 1011.47 1010.29 1010.03 1009.24 1008.07 1006.25 1004.42 1004.07 1004.13 1003.99 1003.54 1002.99 1003.11 1003.26 1003.27 1003.42 1003.30 1003.61 1003.60 1003.14 1003.05 1003.29 1003.19 1003.57 1004.05 1002.97 1003.50 1005.42 1006.12 1005.02 1006.74 1005.61 1004.90 1006.33 1006.58 1006.19 1005.76 1006.04 1006.16 1006.84 1007.06 1007.71
1014.87 1012.97 1011.22 1010.21 1010.62 1010.35 1008.75 1006.68 1004.81 1004.54 1004.44 1004.41 1003.89 1003.42 1002.65 1003.11 1003.61 1003.32 1003.17 1002.94 1003.15 1004.16 1004.53 1004.35 1002.98 1003.15 1003.56 1002.69 1002.81 1003.16 1004.86 1005.83 1004.34 1004.58 1004.85 1005.32 1006.73 1007.37 1006.82 1006.58 1006.18 1006.16 1007.18 1008.51 1007.82
1013.92 1010.57 1009.44 1010.03 1010.35 1009.88 1008.12 1006.09 1005.24 1005.47 1005.57 1005.06 1004.10 1003.83 1003.09 1003.32 1003.25 1003.11 1003.19 1003.83 1003.72 1003.73 1004.23 1003.96 1003.23 1003.42 1003.59 1003.60 1002.98 1003.23 1004.01 1004.12 1004.18 1004.74 1005.04 1005.23 1006.06 1006.52 1007.00 1006.99 1006.90 1006.79 1007.26 1008.15 1009.38
1013.40 1009.50 1009.69 1009.77 1010.14 1008.79 1006.79 1005.40 1005.39 1005.44 1005.78 1005.39 1004.75 1004.56 1004.44 1004.24 1004.26 1003.89 1003.59 1004.08 1005.02 1005.18 1005.30 1004.84 1004.54 1003.94 1004.81 1004.14 1004.20 1005.06 1004.60 1006.29 1007.72 1006.14 1006.52 1006.86 1008.61 1007.83 1008.04 1007.74 1007.80 1007.51 1007.67 1008.08 1008.62
1011.75 1008.44 1009.39 1009.60 1008.83 1007.23 1005.84 1005.38 1007.03 1005.97 1005.64 1005.67 1005.68 1005.50 1005.32 1004.99 1005.03 1004.52 1004.33 1004.92 1006.07 1006.18 1005.72 1005.37 1005.20 1004.53 1004.60 1005.51 1006.51 1004.52 1004.60 1005.14 1005.72 1006.15 1007.38 1006.75 1007.52 1008.60 1008.77 1008.51 1008.79 1008.56 1008.80 1009.46 1009.68
1010.90 1008.52 1009.11 1008.96 1007.18 1005.86 1005.77 1006.09 1006.10 1005.77 1005.47 1005.49 1005.36 1005.45 1005.30 1005.42 1005.39 1004.86 1004.91 1005.49 1006.32 1006.25 1006.70 1006.62 1005.56 1004.89 1004.40 1006.72 1008.39 1007.92 1005.99 1005.43 1005.86 1006.61 1006.67 1008.19 1008.70 1008.82 1009.23 1009.23 1009.34 1009.68 1009.90 1010.72 1011.08
1011.46 1008.00 1008.17 1008.15 1006.68 1006.28 1005.31 1005.65 1005.42 1005.30 1005.59 1005.65 1005.52 1005.32 1005.37 1005.22 1004.87 1005.05 1004.40 1005.01 1006.22 1006.65 1007.14 1007.73 1006.62 1005.79 1005.04 1004.91 1005.49 1005.80 1005.13 1005.16 1005.74 1006.27 1006.47 1007.83 1009.54 1009.04 1009.46 1009.61 1010.01 1010.44 1010.77 1011.18 1011.89
1010.76 1007.95 1007.61 1006.83 1006.35 1006.18 1006.47 1006.12 1005.73 1005.25 1005.46 1005.69 1005.46 1005.38 1005.19 1004.82 1004.38 1004.09 1004.50 1003.87 1005.17 1006.73 1006.46 1007.54 1006.95 1006.16 1005.53 1005.16 1005.28 1005.24 1005.30 1005.61 1005.64 1006.28 1006.85 1007.49 1007.77 1009.18 1009.97 1010.26 1010.60 1010.85 1011.03 1011.51 1012.18
1011.07 1009.21 1007.86 1006.89 1006.87 1006.52 1006.92 1006.30 1005.92 1005.79 1005.78 1005.56 1005.40 1005.43 1004.90 1004.81 1004.61 1003.84 1003.95 1004.20 1004.21 1007.78 1006.62 1006.79 1006.75 1006.25 1005.40 1004.91 1005.52 1005.23 1005.63 1006.16 1006.28 1006.84 1007.18 1007.76 1008.46 1009.74 1010.22 1010.73 1011.14 1011.34 1011.56 1011.75 1012.16
1011.89 1010.33 1009.47 1007.71 1007.04 1006.51 1005.86 1006.01 1006.46 1006.58 1006.55 1005.99 1006.23 1006.13 1005.46 1004.87 1004.19 1004.66 1005.10 1005.16 1005.40 1005.54 1006.03 1006.63 1006.58 1006.33 1005.42 1006.01 1005.50 1005.30 1006.12 1006.21 1006.50 1007.42 1008.35 1008.24 1009.29 1010.14 1010.36 1011.02 1011.45 1011.74 1011.89 1012.20 1012.60
Wind_Speed
12 11 11 10 8 8 7 7 8 9 8 8 8 9 9 10 12 10 13 2 4 16 6 12 12 12 13 7 7 12 7 3 12 5 9 10 9 4 3 6 2 5 8 10 19
13 11 11 10 9 9 8 7 8 8 9 9 9 9 9 9 12 15 9 10 16 14 13 11 11 7 13 4 5 15 0 5 11 9 4 12 7 10 5 6 7 6 6 14 18
12 11 11 10 9 8 8 7 7 8 10 9 9 9 9 11 12 17 16 15 13 14 17 11 7 10 11 7 4 3 2 4 11 5 3 6 8 4 6 4 6 11 14 14 14
12 11 11 10 9 9 8 8 8 9 9 10 9 9 9 10 8 9 10 14 12 15 15 9 10 14 3 4 4 3 2 3 8 2 6 8 6 9 8 3 6 4 15 16 16
11 11 11 10 9 8 8 8 9 9 9 11 9 8 8 10 2 11 11 12 15 14 13 10 9 11 6 3 9 8 5 0 4 4 6 7 8 9 7 5 6 5 10 16 15
10 11 11 11 10 9 8 8 8 9 9 10 8 6 8 16 13 16 16 17 14 13 13 10 7 8 7 4 3 4 3 4 3 5 3 8 10 9 7 6 8 9 12 14 15
11 10 11 11 10 10 9 9 9 10 10 9 6 7 11 5 3 14 15 15 12 10 9 6 6 12 6 2 4 2 10 8 10 6 5 5 15 16 8 9 10 11 11 13 14
11 10 11 11 11 10 11 12 12 11 10 9 6 9 7 4 3 11 13 13 10 10 8 5 7 12 6 1 13 12 8 14 9 5 4 5 9 9 10 10 10 12 11 12 14
12 11 10 11 11 11 12 13 11 7 8 7 8 9 8 5 10 9 12 11 11 8 6 7 12 13 5 13 10 13 9 8 9 7 5 9 14 9 2 4 9 12 12 12 13
12 11 11 12 11 11 12 9 5 4 7 9 9 8 10 13 10 10 12 7 10 9 10 11 11 13 16 9 3 8 12 7 8 6 9 12 14 15 11 9 9 12 11 13 15
13 12 12 12 10 9 11 6 8 8 13 12 15 20 16 7 12 12 12 13 15 11 15 15 13 14 9 17 13 9 11 13 10 4 4 13 15 12 6 11 8 11 12 12 14
14 13 14 12 10 9 8 9 8 8 8 17 10 17 6 12 15 15 15 14 14 16 14 15 13 18 1 8 9 10 18 12 13 7 8 15 18 14 14 8 11 11 12 12 12
13 14 14 12 11 7 11 9 6 8 9 15 15 15 15 13 16 17 18 19 17 18 11 8 23 4 19 18 15 11 15 13 18 13 12 17 16 21 8 7 6 6 9 11 11
14 13 14 14 6 2 10 8 7 5 8 12 11 13 15 9 18 17 21 21 22 22 16 19 24 17 12 17 13 17 7 16 17 16 14 12 14 21 18 14 24 11 6 8 10
15 14 12 7 11 9 7 3 7 4 7 9 11 7 15 22 19 18 12 18 21 19 14 16 19 24 19 15 24 16 17 13 17 18 24 11 5 7 27 8 12 7 9 5 7
17 13 14 7 7 8 4 5 5 9 4 8 8 10 13 14 20 22 20 19 18 18 21 21 19 9 16 22 12 19 15 18 22 5 6 12 2 6 10 12 14 13 11 9 6
19 17 9 8 2 2 5 7 9 11 5 6 6 7 12 8 12 20 18 16 16 20 21 21 18 20 17 17 15 22 14 12 22 12 6 5 12 9 14 12 12 13 11 7 5
20 13 10 8 4 6 6 10 11 5 4 5 4 5 12 3 10 14 16 17 21 22 20 14 19 23 13 19 20 2 15 12 10 8 19 11 0 1 8 10 10 8 8 4 3
25 6 7 5 8 5 8 11 7 3 5 5 5 12 7 8 8 10 17 17 17 7 14 18 25 12 18 18 11 13 4 27 10 16 14 5 8 17 3 7 12 10 7 10 4
8 6 6 5 6 7 9 14 5 3 7 7 14 3 15 3 3 9 12 12 9 12 11 16 20 17 7 16 12 11 17 12 8 10 15 7 9 6 10 10 12 12 6 8 9
7 7 7 6 7 7 10 9 4 5 7 8 10 5 9 9 10 15 16 8 9 12 9 12 12 15 4 9 6 3 12 5 12 4 7 9 1 7 9 11 13 14 12 6 4
6 5 7 6 9 9 11 2 4 9 5 9 7 11 10 11 9 14 7 2 3 5 8 3 6 12 11 28 29 12 11 10 7 9 8 14 5 8 9 11 11 12 13 12 9
6 3 6 7 9 9 8 6 5 9 8 5 9 9 8 9 5 3 6 6 2 3 9 12 6 9 14 8 12 11 16 8 6 7 10 7 2 6 9 10 11 11 9 8 7
6 6 6 8 11 10 4 7 8 7 7 13 10 9 11 11 11 7 11 9 6 8 8 4 9 11 13 14 1 8 8 6 4 8 6 1 13 8 10 11 9 8 6 6 4
6 2 5 8 11 8 1 8 10 7 7 5 10 13 14 11 15 14 11 13 8 7 3 1 13 14 14 6 7 2 4 4 7 4 8 5 7 10 9 9 9 7 6 8 5
7 6 1 2 5 5 5 10 4 8 7 10 10 15 12 11 15 16 16 10 1 13 10 6 9 10 15 3 8 4 2 4 6 4 9 4 9 5 5 6 7 6 7 3 2
7 4 6 4 7 9 2 3 7 10 11 6 9 14 16 16 6 8 8 10 8 8 6 7 7 6 12 10 17 6 6 4 3 4 6 7 9 5 7 6 5 5 4 4 6
Wind_Direction
4 360 355 354 351 350 341 340 324 323 320 315 314 310 311 310 292 226 228 91 166 175 229 214 223 234 237 245 268 265 346 240 116 63 124 149 150 118 110 152 202 73 29 94 158
359 357 355 354 350 350 340 332 325 323 322 316 313 312 313 319 264 235 153 124 148 177 215 207 212 221 237 234 221 260 39 155 31 71 63 137 279 134 224 153 168 149 92 129 158
359 355 354 352 350 345 335 326 320 319 321 318 313 313 309 299 254 220 149 145 175 197 248 243 286 263 268 240 164 66 225 56 118 48 325 300 167 176 222 183 274 183 150 160 172
357 359 352 350 347 342 333 331 322 317 312 316 316 313 312 250 219 101 153 151 184 211 246 235 246 245 243 136 78 299 85 359 65 89 280 271 303 160 224 282 62 121 144 170 183
353 356 351 344 343 337 329 324 312 307 307 310 312 314 272 216 281 125 139 153 182 215 228 225 245 263 72 133 173 250 125 269 114 267 264 285 251 290 245 198 150 178 167 179 189
346 354 353 342 339 330 323 313 303 297 292 299 303 306 246 247 100 146 155 167 196 223 223 241 294 351 291 49 10 5 352 290 243 274 260 280 256 219 236 223 181 197 191 188 191
342 342 349 344 335 327 314 303 289 285 284 284 283 261 258 337 111 158 167 192 216 233 262 250 307 287 334 164 11 271 255 256 198 225 263 284 256 228 221 169 208 209 208 197 194
338 336 340 343 331 322 313 303 291 277 268 264 253 244 266 99 137 177 184 201 221 247 283 308 286 284 280 74 241 234 205 298 132 166 158 247 307 64 170 166 230 213 218 206 196
334 333 335 339 330 324 317 307 291 259 227 216 217 236 228 158 199 178 198 200 201 221 234 288 258 261 209 239 243 336 248 228 171 169 205 218 295 83 100 212 239 236 215 211 208
334 333 330 333 327 322 312 281 304 197 209 213 267 242 236 210 154 170 191 217 198 212 227 243 241 237 224 295 28 294 329 317 314 112 216 253 248 269 180 215 245 256 228 213 211
338 335 335 330 324 326 305 191 203 191 217 220 185 228 174 116 141 185 185 206 208 211 230 201 239 239 105 240 306 324 311 293 299 152 263 280 272 271 211 199 241 250 250 228 221
336 338 333 323 315 313 271 251 31 353 252 221 254 234 304 169 193 185 182 206 208 228 237 283 227 265 295 289 296 292 279 319 281 267 269 267 270 278 279 258 220 224 230 236 219
328 336 326 319 317 260 238 241 320 336 254 174 215 224 216 227 238 179 200 211 225 231 211 244 285 132 291 296 275 248 309 308 311 298 249 264 320 265 307 174 206 207 236 223 230
324 329 326 320 279 156 219 217 253 320 266 141 198 225 221 232 236 247 185 232 226 244 246 214 237 287 220 263 278 280 281 289 295 285 274 189 287 347 312 35 5 179 195 239 233
324 324 318 317 319 231 54 274 306 233 260 140 134 73 218 218 236 211 232 223 254 266 287 275 218 258 353 313 288 287 295 297 289 283 349 357 22 237 250 134 190 88 11 238 229
321 318 319 206 229 288 284 299 235 234 247 143 159 196 206 224 233 245 198 229 260 260 269 257 263 220 248 249 266 288 289 272 266 82 250 208 55 279 17 39 30 15 32 7 356
317 310 277 311 22 348 287 220 230 259 87 177 206 206 210 190 216 225 221 221 231 244 244 252 284 284 264 258 259 253 31 351 288 239 275 86 269 27 37 39 32 22 6 52 21
314 307 191 275 314 285 241 230 265 351 236 65 273 231 250 124 218 208 231 243 239 244 265 264 240 238 238 297 271 232 156 216 340 332 266 303 331 101 4 58 43 45 8 62 57
313 198 224 165 213 255 245 232 234 310 28 272 226 262 193 178 264 201 240 238 244 284 275 283 289 343 300 223 268 283 145 230 294 300 320 23 360 55 335 13 17 25 61 357 224
298 233 142 143 173 234 241 261 342 319 299 248 270 34 311 32 245 280 294 155 303 311 318 276 297 189 250 312 260 264 339 294 277 289 285 338 20 33 24 10 7 359 64 98 283
249 225 100 164 193 232 238 241 193 131 305 285 283 292 290 286 311 292 292 73 336 318 320 289 279 297 287 259 307 239 231 120 233 348 331 305 137 54 11 21 7 356 20 64 95
286 240 136 183 213 227 239 263 21 283 231 257 256 279 287 317 304 301 315 261 59 267 263 324 298 256 254 36 1 331 348 347 321 298 196 259 112 88 29 23 22 7 35 24 23
271 48 156 219 230 218 236 272 235 274 267 271 254 251 288 284 296 241 306 98 265 24 17 359 250 255 235 38 353 265 257 278 249 245 285 14 117 46 42 25 37 15 42 44 47
274 188 147 206 263 301 215 237 260 244 265 278 268 277 270 261 229 261 261 149 180 135 144 342 291 289 298 344 178 212 228 307 299 280 333 13 173 62 31 26 23 24 21 68 109
235 50 7 188 215 229 130 313 290 312 190 282 262 247 256 260 277 247 290 162 167 196 157 117 281 290 287 295 282 296 319 310 299 353 305 31 20 37 24 10 8 2 7 33 5
314 333 288 57 313 220 193 262 269 306 325 294 237 274 300 267 268 296 314 332 326 185 196 184 267 267 270 306 260 317 93 242 239 49 303 319 101 40 53 352 5 13 353 16 25
2 271 271 122 189 239 329 357 322 318 296 306 324 310 284 297 261 320 311 303 286 298 182 204 277 253 274 163 228 247 103 270 328 152 325 332 27 1 352 2 353 354 19 359 6